Home > Weather > Greenwich Borough > Past weeks

Flag for United Kingdom Weather for the Past 2 Weeks in Greenwich Borough, England, United Kingdom

Now
37 °F

Passing clouds.


Feels Like: 31 °F
Forecast: 36 / 44 °F
Wind: 8 mph from East

Location: Northolt

Current Time: Feb 13, 2016 at 4:58:35 AM

Latest Report: Feb 13, 2016 at 3:50 AM


Visibility: N/A

Pressure: 29.24 "Hg

Humidity: 81%

Dew point: 32 °F

Location of Greenwich BoroughLocation

Historic Weather in Greenwich Borough — Graph

°F

Greenwich Borough Temperature Yesterday

Maximum temperature yesterday: 45 °F (at 9:50 AM)
Minimum temperature yesterday: 30 °F (at 1:50 AM)
Average temperature yesterday: 38 °F

High & Low Weather Summary for the Past Weeks

 TemperatureHumidityPressure
High57 °F (Feb 1, 1:50 PM)100% (Feb 11, 6:50 AM)30.36 "Hg (Feb 11, 6:50 AM)
Low27 °F (Feb 11, 6:50 AM)46% (Jan 30, 1:50 PM)29.03 "Hg (Feb 8, 3:50 AM)
Average45 °F77%29.69 "Hg
* Reported Jan 29 2:50 AM — Feb 13 2:50 AM, Greenwich Borough, Weather by CustomWeather, © 2016

Note: Actual official high and low records may vary slightly from our data, if they occured in-between our weather recording intervals... More about our weather records

Advertising

Greenwich Borough Weather History for the Previous 24 Hours

 ConditionsComfort  
Time TempWeatherWind HumidityBarometerVisibility
2:50 AM
Sat, Feb 13
36 °FPassing clouds.6 mph93%29.27 "HgN/A
1:50 AM34 °FClear.3 mph93%29.30 "HgN/A
12:50 AM37 °FPassing clouds.7 mph87%29.33 "HgN/A
11:50 PM
Fri, Feb 12
39 °FPartly cloudy.5 mph87%29.36 "HgN/A
10:50 PM39 °FPassing clouds.7 mph87%29.36 "HgN/A
9:50 PM41 °FPassing clouds.6 mph81%29.39 "HgN/A
8:50 PM41 °FPartly cloudy.6 mph81%29.42 "HgN/A
7:50 PM41 °FPassing clouds.6 mph76%29.39 "HgN/A
6:50 PM41 °FPassing clouds.8 mph76%29.39 "HgN/A
5:50 PM41 °FPassing clouds.8 mph76%29.39 "HgN/A
4:50 PM41 °FPartly sunny.8 mph76%29.36 "HgN/A
3:50 PM41 °FPartly sunny.10 mph70%29.36 "HgN/A
2:50 PM41 °FPartly sunny.10 mph76%29.36 "HgN/A
1:50 PM43 °FPartly sunny.9 mph71%29.33 "HgN/A
12:50 PM41 °FPartly sunny.13 mph81%29.33 "HgN/A
11:50 AM43 °FMostly cloudy.12 mph76%29.36 "HgN/A
10:50 AM43 °FPartly sunny.13 mph76%29.36 "HgN/A
9:50 AM45 °FScattered clouds.13 mph76%29.36 "HgN/A
8:50 AM37 °FScattered clouds.7 mph93%29.36 "HgN/A
7:50 AM37 °FPartly sunny.7 mph87%29.36 "HgN/A
6:50 AM36 °FClear.5 mph93%29.39 "Hg10 mi
5:50 AM36 °FPartly cloudy.6 mph93%29.39 "HgN/A
4:50 AM32 °FPassing clouds.5 mph100%29.42 "HgN/A
Weather by CustomWeather, © 2016

See weather overviewHow to use our weather pages